Météo Nord-Pas-de-Calais   La météo au plus près de chez vous

Station météorologique

Observations météo à Tregunc (29293)

29293001 25 m Dernier relevé à 10:54
20.7°C
Humidité 93 % Vent 12.6 km/h

Journée consultée

Vendredi 4 Septembre 2026

Synthèse de la journée

Périodes de référence en UTC

Température maximale

20.7°C

à 10:54

06h 06h

Température minimale

18.7°C

à 06:12

18h 18h

Rafale maximale

25 km/h

à 10:24

00h 00h

Précipitations

0 mm

Cumul quotidien

06h 06h

Graphiques de la journée

Heure locale Réduire

Données détaillées

Relevés météo

Pas de 6 minutes Afficher les relevés infra-horaires
Relevés météo détaillés à Tregunc pour le Vendredi 4 Septembre 2026
Heure Température °C Point de rosée °C Humidité % Vent moyen (raf.), km/h Précipitations mm
10:54 20.7 °C 18.8 °C 89 % 15 km/h (23 km/h) 0 mm0 mm
10:48 20.6 °C 18.9 °C 90 % 16 km/h (23 km/h) 0 mm0 mm
10:42 20.4 °C 18.7 °C 90 % 17 km/h (23 km/h) 0 mm0 mm
10:36 20.3 °C 18.4 °C 89 % 15 km/h (23 km/h) 0 mm0 mm
10:30 20.3 °C 18.8 °C 91 % 15 km/h (24 km/h) 0 mm0 mm
10:24 20 °C 18.7 °C 92 % 15 km/h (24 km/h) 0 mm0 mm
10:18 20 °C 18.7 °C 92 % 13 km/h (23 km/h) 0 mm0 mm
10:12 19.9 °C 18.6 °C 92 % 13 km/h (19 km/h) 0 mm0 mm
10:06 19.8 °C 18.6 °C 93 % 14 km/h (22 km/h) 0 mm0 mm
10:00 19.8 °C 18.6 °C 93 % 14 km/h (22 km/h) 0 mm0 mm
09:54 19.7 °C 18.5 °C 93 % 13 km/h (20 km/h) 0 mm0 mm
09:48 19.7 °C 18.5 °C 93 % 12 km/h (18 km/h) 0 mm0 mm
09:42 19.7 °C 18.5 °C 93 % 13 km/h (20 km/h) 0 mm0 mm
09:36 19.7 °C 18.5 °C 93 % 14 km/h (21 km/h) 0 mm0 mm
09:30 19.6 °C 18.6 °C 94 % 13 km/h (21 km/h) 0 mm0 mm
09:24 19.5 °C 18.5 °C 94 % 11 km/h (18 km/h) 0 mm0 mm
09:18 19.4 °C 18.6 °C 95 % 12 km/h (18 km/h) 0 mm0 mm
09:12 19.4 °C 18.6 °C 95 % 11 km/h (17 km/h) 0 mm0 mm
09:06 19.4 °C 18.6 °C 95 % 11 km/h (18 km/h) 0 mm0 mm
09:00 19.4 °C 18.6 °C 95 % 11 km/h (19 km/h) 0 mm0 mm
08:54 19.3 °C 18.5 °C 95 % 13 km/h (19 km/h) 0 mm0 mm
08:48 19.2 °C 18.4 °C 95 % 12 km/h (18 km/h) 0 mm0 mm
08:42 19.2 °C 18.5 °C 96 % 12 km/h (18 km/h) 0 mm0 mm
08:36 19.2 °C 18.5 °C 96 % 11 km/h (18 km/h) 0 mm0 mm
08:30 19.2 °C 18.5 °C 96 % 13 km/h (18 km/h) 0 mm0 mm
08:24 19.1 °C 18.4 °C 96 % 13 km/h (19 km/h) 0 mm0 mm
08:18 19.1 °C 18.4 °C 96 % 13 km/h (21 km/h) 0 mm0 mm
08:12 19.1 °C 18.4 °C 96 % 12 km/h (19 km/h) 0 mm0 mm
08:06 19.1 °C 18.4 °C 96 % 13 km/h (19 km/h) 0 mm0 mm
08:00 19.1 °C 18.6 °C 97 % 12 km/h (19 km/h) 0 mm0 mm
07:54 19.1 °C 18.6 °C 97 % 11 km/h (17 km/h) 0 mm0 mm
07:48 19.1 °C 18.4 °C 96 % 11 km/h (17 km/h) 0 mm0 mm
07:42 19.1 °C 18.4 °C 96 % 10 km/h (15 km/h) 0 mm0 mm
07:36 19.1 °C 18.4 °C 96 % 10 km/h (17 km/h) 0 mm0 mm
07:30 19.2 °C 18.5 °C 96 % 10 km/h (17 km/h) 0 mm0 mm
07:24 19.2 °C 18.4 °C 95 % 10 km/h (15 km/h) 0 mm0 mm
07:18 19.2 °C 18.4 °C 95 % 10 km/h (16 km/h) 0 mm0 mm
07:12 19.2 °C 18.4 °C 95 % 10 km/h (16 km/h) 0 mm0 mm
07:06 19.2 °C 18.4 °C 95 % 10 km/h (17 km/h) 0 mm0 mm
07:00 19.1 °C 18.1 °C 94 % 11 km/h (17 km/h) 0 mm0 mm
06:54 19 °C 18 °C 94 % 11 km/h (22 km/h) 0 mm0 mm
06:48 19 °C 18.2 °C 95 % 9 km/h (14 km/h) 0 mm0 mm
06:42 18.9 °C 18.1 °C 95 % 7 km/h (12 km/h) 0 mm0 mm
06:36 18.9 °C 18.1 °C 95 % 6 km/h (11 km/h) 0 mm0 mm
06:30 18.8 °C 18 °C 95 % 5 km/h (9 km/h) 0 mm0 mm
06:24 18.7 °C 17.9 °C 95 % 6 km/h (9 km/h) 0 mm0 mm
06:18 18.7 °C 17.7 °C 94 % 6 km/h (9 km/h) 0 mm0 mm
06:12 18.7 °C 17.7 °C 94 % 7 km/h (10 km/h) 0 mm0 mm
06:06 18.9 °C 17.9 °C 94 % 6 km/h (10 km/h) 0 mm0 mm
06:00 19 °C 18 °C 94 % 7 km/h (10 km/h) 0 mm0 mm
05:54 19 °C 18 °C 94 % 7 km/h (10 km/h) 0 mm0 mm
05:48 19 °C 18.2 °C 95 % 7 km/h (10 km/h) 0 mm0 mm
05:42 19 °C 18.2 °C 95 % 8 km/h (13 km/h) 0 mm0 mm
05:36 19 °C 18.2 °C 95 % 8 km/h (13 km/h) 0 mm0 mm
05:30 19 °C 18.3 °C 96 % 8 km/h (15 km/h) 0 mm0 mm
05:24 19 °C 18.3 °C 96 % 9 km/h (15 km/h) 0 mm0 mm
05:18 19 °C 18.3 °C 96 % 8 km/h (13 km/h) 0 mm0 mm
05:12 19.1 °C 18.4 °C 96 % 8 km/h (13 km/h) 0 mm0 mm
05:06 19.1 °C 18.4 °C 96 % 8 km/h (13 km/h) 0 mm0 mm
05:00 19.1 °C 18.4 °C 96 % 9 km/h (13 km/h) 0 mm0 mm
04:54 19.1 °C 18.4 °C 96 % 8 km/h (13 km/h) 0 mm0 mm
04:48 19 °C 18.3 °C 96 % 8 km/h (11 km/h) 0 mm0 mm
04:42 19 °C 18.3 °C 96 % 7 km/h (11 km/h) 0 mm0 mm
04:36 19 °C 18.3 °C 96 % 7 km/h (10 km/h) 0 mm0 mm
04:30 19 °C 18.2 °C 95 % 8 km/h (10 km/h) 0 mm0 mm
04:24 18.9 °C 18.1 °C 95 % 8 km/h (11 km/h) 0 mm0 mm
04:18 18.9 °C 17.9 °C 94 % 8 km/h (11 km/h) 0 mm0 mm
04:12 18.9 °C 17.9 °C 94 % 7 km/h (10 km/h) 0 mm0 mm
04:06 19 °C 18 °C 94 % 8 km/h (11 km/h) 0 mm0 mm
04:00 19.1 °C 17.9 °C 93 % 8 km/h (13 km/h) 0 mm0 mm
03:54 19.1 °C 17.9 °C 93 % 8 km/h (14 km/h) 0 mm0 mm
03:48 19.2 °C 18 °C 93 % 7 km/h (12 km/h) 0 mm0 mm
03:42 19.2 °C 18 °C 93 % 7 km/h (12 km/h) 0 mm0 mm
03:36 19.3 °C 18.1 °C 93 % 7 km/h (12 km/h) 0 mm0 mm
03:30 19.3 °C 18.1 °C 93 % 8 km/h (13 km/h) 0 mm0 mm
03:24 19.3 °C 18.1 °C 93 % 8 km/h (13 km/h) 0 mm0 mm
03:18 19.3 °C 18.1 °C 93 % 8 km/h (13 km/h) 0 mm0 mm
03:12 19.3 °C 18 °C 92 % 8 km/h (14 km/h) 0 mm0 mm
03:06 19.3 °C 18 °C 92 % 8 km/h (16 km/h) 0 mm0 mm
03:00 19.3 °C 18 °C 92 % 9 km/h (16 km/h) 0 mm0 mm
02:54 19.3 °C 18 °C 92 % 9 km/h (15 km/h) 0 mm0 mm
02:48 19.4 °C 18.1 °C 92 % 8 km/h (15 km/h) 0 mm0 mm
02:42 19.4 °C 18.1 °C 92 % 8 km/h (14 km/h) 0 mm0 mm
02:36 19.4 °C 18.1 °C 92 % 8 km/h (14 km/h) 0 mm0 mm
02:30 19.4 °C 18.1 °C 92 % 9 km/h (15 km/h) 0 mm0 mm
02:24 19.4 °C 18.1 °C 92 % 10 km/h (18 km/h) 0 mm0 mm
02:18 19.4 °C 18.1 °C 92 % 9 km/h (18 km/h) 0 mm0 mm
02:12 19.5 °C 18.2 °C 92 % 9 km/h (17 km/h) 0 mm0 mm
02:06 19.5 °C 18.2 °C 92 % 10 km/h (17 km/h) 0 mm0 mm
02:00 19.5 °C 18.2 °C 92 % 9 km/h (17 km/h) 0 mm0 mm
01:54 19.6 °C 18.1 °C 91 % 9 km/h (16 km/h) 0 mm0 mm
01:48 19.6 °C 18.1 °C 91 % 11 km/h (17 km/h) 0 mm0 mm
01:42 19.6 °C 18.3 °C 92 % 12 km/h (20 km/h) 0 mm0 mm
01:36 19.6 °C 18.1 °C 91 % 13 km/h (24 km/h) 0 mm0 mm
01:30 19.5 °C 18.2 °C 92 % 12 km/h (24 km/h) 0 mm0 mm
01:24 19.5 °C 18.2 °C 92 % 12 km/h (22 km/h) 0 mm0 mm
01:18 19.4 °C 18.1 °C 92 % 12 km/h (22 km/h) 0 mm0 mm
01:12 19.5 °C 18.3 °C 93 % 9 km/h (16 km/h) 0 mm0 mm
01:06 19.4 °C 18.4 °C 94 % 8 km/h (15 km/h) 0 mm0 mm
01:00 19.4 °C 18.4 °C 94 % 6 km/h (10 km/h) 0 mm0 mm
00:54 19.4 °C 18.4 °C 94 % 6 km/h (9 km/h) 0 mm0 mm
00:48 19.4 °C 18.4 °C 94 % 6 km/h (9 km/h) 0 mm0 mm
00:42 19.4 °C 18.4 °C 94 % 6 km/h (9 km/h) 0 mm0 mm
00:36 19.4 °C 18.4 °C 94 % 5 km/h (9 km/h) 0 mm0 mm
00:30 19.5 °C 18.3 °C 93 % 5 km/h (7 km/h) 0 mm0 mm
00:24 19.5 °C 18.3 °C 93 % 5 km/h (7 km/h) 0 mm0 mm
00:18 19.5 °C 18.3 °C 93 % 5 km/h (8 km/h) 0 mm0 mm
00:12 19.4 °C 18.2 °C 93 % 6 km/h (8 km/h) 0 mm0 mm
00:06 19.5 °C 18.3 °C 93 % 6 km/h (8 km/h) 0 mm0 mm
00:00 19.5 °C 18.2 °C 92 % 5 km/h (8 km/h) 0 mm0 mm

Données via Météo-France

Relevés météo à Tregunc

Cette page rassemble les observations de la station de Tregunc : température, humidité, vent, précipitations et pression atmosphérique. Les graphiques facilitent le suivi de la journée, tandis que le tableau donne accès aux mesures horaires et infra-horaires disponibles.

Pour replacer ces mesures dans leur contexte, consultez la climatologie de Tregunc ainsi que ses normales et records. Retrouvez aussi la carte des observations météo en temps réel.